Time,TemperatureF,DewpointF,PressureIn,WindDirection,WindDirectionDegrees,WindSpeedMPH,WindSpeedGustMPH,Humidity,HourlyPrecipIn,Conditions,Clouds,dailyrainin,SoftwareType,DateUTC
2013-03-03 00:02:00,-999.0,-99.9,-100.00,SSW,208,8.0,-999.0,-999,-99.99,,,-99.99,,2013-03-03 05:02:00,
2013-03-03 00:12:00,-999.0,-99.9,-100.00,SSW,208,8.0,-999.0,-999,-99.99,,,-99.99,,2013-03-03 05:12:00,
2013-03-03 00:32:00,-999.0,-99.9,-100.00,SSW,213,10.0,-999.0,-999,-99.99,,,-99.99,,2013-03-03 05:32:00,
2013-03-03 00:42:00,59.0,-99.9,-100.00,North,-999,-999.0,-999.0,-999,-99.99,,,-99.99,,2013-03-03 05:42:00,
2013-03-03 01:02:00,-999.0,-99.9,-100.00,SSW,213,10.0,-999.0,-999,-99.99,,,-99.99,,2013-03-03 06:02:00,
2013-03-03 01:11:00,-999.0,-99.9,-100.00,SSW,213,11.0,-999.0,-999,-99.99,,,-99.99,,2013-03-03 06:11:00,
2013-03-03 01:22:00,-999.0,-99.9,-100.00,SSW,213,11.0,-999.0,-999,-99.99,,,-99.99,,2013-03-03 06:22:00,
2013-03-03 01:32:00,-999.0,-99.9,-100.00,SW,225,10.0,-999.0,-999,-99.99,,,-99.99,,2013-03-03 06:32:00,
2013-03-03 01:42:00,-999.0,-99.9,-100.00,SSW,213,10.0,-999.0,-999,-99.99,,,-99.99,,2013-03-03 06:42:00,
2013-03-03 01:52:00,-999.0,-99.9,-100.00,SSW,213,10.0,-999.0,-999,-99.99,,,-99.99,,2013-03-03 06:52:00,
2013-03-03 02:01:00,-999.0,-99.9,-100.00,SSW,213,10.0,-999.0,-999,-99.99,,,-99.99,,2013-03-03 07:01:00,
2013-03-03 02:42:00,57.0,21.0,-100.00,North,-999,-999.0,-999.0,24,-99.99,,,0.00,,2013-03-03 07:42:00,
2013-03-03 02:52:00,-999.0,-99.9,-100.00,SW,230,7.0,-999.0,-999,-99.99,,,-99.99,,2013-03-03 07:52:00,
2013-03-03 03:01:00,-999.0,-99.9,-100.00,SW,230,7.0,-999.0,-999,-99.99,,,-99.99,,2013-03-03 08:01:00,
2013-03-03 03:11:00,-999.0,-99.9,-100.00,SW,225,6.0,-999.0,-999,-99.99,,,-99.99,,2013-03-03 08:11:00,
2013-03-03 03:21:00,-999.0,-99.9,-100.00,SW,225,6.0,-999.0,-999,-99.99,,,-99.99,,2013-03-03 08:21:00,
2013-03-03 03:42:00,-999.0,-99.9,-100.00,SSW,196,5.0,-999.0,-999,-99.99,,,-99.99,,2013-03-03 08:42:00,
2013-03-03 03:54:00,-999.0,-99.9,-100.00,SSW,196,5.0,-999.0,-999,-99.99,,,-99.99,,2013-03-03 08:54:00,
2013-03-03 04:02:00,-999.0,-99.9,-100.00,SSW,196,5.0,-999.0,-999,-99.99,,,-99.99,,2013-03-03 09:02:00,
2013-03-03 04:12:00,-999.0,-99.9,-100.00,South,174,5.0,-999.0,-999,-99.99,,,-99.99,,2013-03-03 09:12:00,
2013-03-03 04:22:00,-999.0,-99.9,-100.00,South,174,5.0,-999.0,-999,-99.99,,,-99.99,,2013-03-03 09:22:00,
2013-03-03 04:32:00,-999.0,-99.9,-100.00,South,180,7.0,-999.0,-999,-99.99,,,-99.99,,2013-03-03 09:32:00,
2013-03-03 04:42:00,-999.0,-99.9,-100.00,South,180,7.0,-999.0,-999,-99.99,,,-99.99,,2013-03-03 09:42:00,
2013-03-03 04:52:00,-999.0,-99.9,-100.00,SSE,168,7.0,-999.0,-999,-99.99,,,-99.99,,2013-03-03 09:52:00,
2013-03-03 05:01:00,-999.0,-99.9,-100.00,SSE,168,7.0,-999.0,-999,-99.99,,,-99.99,,2013-03-03 10:01:00,
2013-03-03 05:12:00,-999.0,-99.9,-100.00,SSW,213,9.0,-999.0,-999,-99.99,,,-99.99,,2013-03-03 10:12:00,
2013-03-03 05:22:00,-999.0,-99.9,-100.00,SSW,213,9.0,-999.0,-999,-99.99,,,-99.99,,2013-03-03 10:22:00,
2013-03-03 05:42:00,-999.0,-99.9,-100.00,SSW,202,9.0,-999.0,-999,-99.99,,,-99.99,,2013-03-03 10:42:00,
2013-03-03 05:52:00,-999.0,-99.9,-100.00,SSW,196,11.0,-999.0,-999,-99.99,,,-99.99,,2013-03-03 10:52:00,
2013-03-03 06:02:00,-999.0,-99.9,-100.00,SSW,196,11.0,-999.0,-999,-99.99,,,-99.99,,2013-03-03 11:02:00,
2013-03-03 06:11:00,-999.0,-99.9,-100.00,SSW,208,16.0,-999.0,-999,-99.99,,,-99.99,,2013-03-03 11:11:00,
2013-03-03 06:22:00,-999.0,-99.9,-100.00,SSW,208,16.0,-999.0,-999,-99.99,,,-99.99,,2013-03-03 11:22:00,
2013-03-03 06:32:00,-999.0,-99.9,-100.00,SW,230,15.0,-999.0,-999,-99.99,,,-99.99,,2013-03-03 11:32:00,
2013-03-03 06:42:00,-999.0,-99.9,-100.00,SW,219,17.0,-999.0,-999,-99.99,,,-99.99,,2013-03-03 11:42:00,
2013-03-03 06:53:00,-999.0,-99.9,-100.00,SW,230,14.0,-999.0,-999,-99.99,,,-99.99,,2013-03-03 11:53:00,
2013-03-03 07:02:00,-999.0,-99.9,-100.00,SW,230,14.0,-999.0,-999,-99.99,,,-99.99,,2013-03-03 12:02:00,
2013-03-03 07:11:00,-999.0,-99.9,-100.00,SW,230,11.0,-999.0,-999,-99.99,,,-99.99,,2013-03-03 12:11:00,
2013-03-03 07:22:00,-999.0,-99.9,-100.00,SW,230,11.0,-999.0,-999,-99.99,,,-99.99,,2013-03-03 12:22:00,
2013-03-03 07:32:00,-999.0,-99.9,-100.00,SW,225,12.0,-999.0,-999,-99.99,,,-99.99,,2013-03-03 12:32:00,
2013-03-03 07:43:00,-999.0,-99.9,-100.00,SW,219,13.0,-999.0,-999,-99.99,,,-99.99,,2013-03-03 12:43:00,
2013-03-03 07:53:00,-999.0,-99.9,-100.00,SW,225,12.0,-999.0,-999,-99.99,,,-99.99,,2013-03-03 12:53:00,
2013-03-03 08:02:00,-999.0,-99.9,-100.00,SW,225,12.0,-999.0,-999,-99.99,,,-99.99,,2013-03-03 13:02:00,
2013-03-03 08:11:00,-999.0,-99.9,-100.00,SW,219,11.0,-999.0,-999,-99.99,,,-99.99,,2013-03-03 13:11:00,
2013-03-03 08:22:00,-999.0,-99.9,-100.00,SW,219,11.0,-999.0,-999,-99.99,,,-99.99,,2013-03-03 13:22:00,
2013-03-03 08:32:00,-999.0,-99.9,-100.00,SW,219,12.0,-999.0,-999,-99.99,,,-99.99,,2013-03-03 13:32:00,
2013-03-03 08:42:00,-999.0,-99.9,-100.00,SSW,208,11.0,-999.0,-999,-99.99,,,-99.99,,2013-03-03 13:42:00,
2013-03-03 08:52:00,-999.0,-99.9,-100.00,SSW,208,11.0,-999.0,-999,-99.99,,,-99.99,,2013-03-03 13:52:00,
2013-03-03 09:02:00,-999.0,-99.9,-100.00,SW,219,9.0,-999.0,21,-99.99,,,-99.99,,2013-03-03 14:02:00,
2013-03-03 09:11:00,-999.0,-99.9,-100.00,SSW,208,9.0,-999.0,-999,-99.99,,,-99.99,,2013-03-03 14:11:00,
2013-03-03 09:22:00,-999.0,-99.9,-100.00,SSW,208,9.0,-999.0,-999,-99.99,,,-99.99,,2013-03-03 14:22:00,
2013-03-03 09:32:00,-999.0,-99.9,-100.00,SSW,208,9.0,-999.0,-999,-99.99,,,-99.99,,2013-03-03 14:32:00,
2013-03-03 09:42:00,-999.0,-99.9,-100.00,SSW,196,5.0,-999.0,-999,-99.99,,,-99.99,,2013-03-03 14:42:00,
2013-03-03 09:52:00,-999.0,-99.9,-100.00,SSW,196,5.0,-999.0,-999,-99.99,,,-99.99,,2013-03-03 14:52:00,
2013-03-03 10:02:00,-999.0,-99.9,-100.00,SSW,208,8.0,-999.0,-999,-99.99,,,-99.99,,2013-03-03 15:02:00,
2013-03-03 10:11:00,-999.0,-99.9,-100.00,SSW,208,8.0,-999.0,-999,-99.99,,,-99.99,,2013-03-03 15:11:00,
2013-03-03 10:22:00,-999.0,-99.9,-100.00,SSW,213,7.0,-999.0,-999,-99.99,,,-99.99,,2013-03-03 15:22:00,
2013-03-03 10:33:00,-999.0,-99.9,-100.00,SSW,213,7.0,-999.0,-999,-99.99,,,-99.99,,2013-03-03 15:33:00,
2013-03-03 10:42:00,-999.0,-99.9,-100.00,WNW,292,6.0,-999.0,-999,-99.99,,,-99.99,,2013-03-03 15:42:00,
2013-03-03 10:51:00,63.0,26.0,-100.00,North,-999,-999.0,-999.0,24,-99.99,,,-99.99,,2013-03-03 15:51:00,
2013-03-03 11:01:00,63.0,26.0,-100.00,North,-999,-999.0,-999.0,24,-99.99,,,-99.99,,2013-03-03 16:01:00,
2013-03-03 11:12:00,-999.0,-99.9,-100.00,South,185,7.0,-999.0,-999,-99.99,,,-99.99,,2013-03-03 16:12:00,
2013-03-03 11:22:00,-999.0,-99.9,-100.00,SW,219,11.0,-999.0,-999,-99.99,,,-99.99,,2013-03-03 16:22:00,
2013-03-03 11:32:00,-999.0,-99.9,-100.00,South,191,13.0,-999.0,-999,-99.99,,,-99.99,,2013-03-03 16:32:00,
2013-03-03 11:42:00,66.0,-99.9,-100.00,North,-999,-999.0,-999.0,-999,-99.99,,,-99.99,,2013-03-03 16:42:00,
2013-03-03 11:52:00,-999.0,-99.9,-100.00,SW,219,18.0,-999.0,-999,-99.99,,,-99.99,,2013-03-03 16:52:00,
2013-03-03 12:01:00,-999.0,-99.9,-100.00,SSW,213,18.0,-999.0,23,-99.99,,,-99.99,,2013-03-03 17:01:00,
2013-03-03 12:12:00,-999.0,-99.9,-100.00,WSW,247,13.0,-999.0,-999,-99.99,,,-99.99,,2013-03-03 17:12:00,
2013-03-03 12:22:00,-999.0,-99.9,-100.00,WSW,247,13.0,-999.0,-999,-99.99,,,-99.99,,2013-03-03 17:22:00,
2013-03-03 12:32:00,-999.0,-99.9,-100.00,SW,219,13.0,-999.0,-999,-99.99,,,-99.99,,2013-03-03 17:32:00,
2013-03-03 12:42:00,69.0,27.0,-100.00,SW,225,13.0,-999.0,20,-99.99,,,-99.99,,2013-03-03 17:42:00,
2013-03-03 12:52:00,-999.0,-99.9,-100.00,SW,225,19.0,-999.0,-999,-99.99,,,-99.99,,2013-03-03 17:52:00,
2013-03-03 13:02:00,-999.0,-99.9,-100.00,SW,225,19.0,-999.0,-999,-99.99,,,-99.99,,2013-03-03 18:02:00,
2013-03-03 13:11:00,-999.0,-99.9,-100.00,SSW,213,16.0,-999.0,-999,-99.99,,,-99.99,,2013-03-03 18:11:00,
2013-03-03 13:22:00,-999.0,-99.9,-100.00,SSW,213,16.0,-999.0,-999,-99.99,,,-99.99,,2013-03-03 18:22:00,
2013-03-03 13:42:00,-999.0,-99.9,-100.00,SW,219,27.0,-999.0,-999,-99.99,,,-99.99,,2013-03-03 18:42:00,
2013-03-03 13:53:00,-999.0,-99.9,-100.00,SW,219,29.0,-999.0,-999,-99.99,,,-99.99,,2013-03-03 18:53:00,
2013-03-03 14:02:00,-999.0,-99.9,-100.00,SW,225,24.0,-999.0,-999,-99.99,,,-99.99,,2013-03-03 19:02:00,
2013-03-03 14:11:00,-999.0,-99.9,-100.00,SW,225,22.0,-999.0,-999,-99.99,,,-99.99,,2013-03-03 19:11:00,
2013-03-03 14:22:00,-999.0,-99.9,-100.00,SW,225,25.0,-999.0,-999,-99.99,,,-99.99,,2013-03-03 19:22:00,
2013-03-03 14:32:00,-999.0,-99.9,-100.00,SW,225,28.0,-999.0,-999,-99.99,,,-99.99,,2013-03-03 19:32:00,
2013-03-03 14:42:00,-999.0,-99.9,-100.00,SW,225,24.0,-999.0,-999,-99.99,,,-99.99,,2013-03-03 19:42:00,
2013-03-03 14:52:00,-999.0,-99.9,-100.00,SW,219,28.0,-999.0,-999,-99.99,,,-99.99,,2013-03-03 19:52:00,
2013-03-03 15:02:00,-999.0,-99.9,-100.00,SW,219,31.0,-999.0,-999,-99.99,,,-99.99,,2013-03-03 20:02:00,
2013-03-03 15:12:00,-999.0,-99.9,-100.00,SSW,202,24.0,-999.0,-999,-99.99,,,-99.99,,2013-03-03 20:12:00,
2013-03-03 15:22:00,-999.0,-99.9,-100.00,SSW,202,27.0,-999.0,-999,-99.99,,,-99.99,,2013-03-03 20:22:00,
2013-03-03 15:32:00,-999.0,-99.9,-100.00,WSW,241,24.0,-999.0,-999,-99.99,,,-99.99,,2013-03-03 20:32:00,
2013-03-03 15:43:00,-999.0,-99.9,-100.00,WSW,241,23.0,-999.0,-999,-99.99,,,-99.99,,2013-03-03 20:43:00,
2013-03-03 15:53:00,-999.0,-99.9,-100.00,SW,225,23.0,-999.0,-999,-99.99,,,-99.99,,2013-03-03 20:53:00,
2013-03-03 16:02:00,-999.0,-99.9,-100.00,SW,225,23.0,-999.0,-999,-99.99,,,-99.99,,2013-03-03 21:02:00,
2013-03-03 16:12:00,-999.0,-99.9,-100.00,SW,230,22.0,-999.0,-999,-99.99,,,-99.99,,2013-03-03 21:12:00,
2013-03-03 16:22:00,-999.0,-99.9,-100.00,SW,230,19.0,-999.0,-999,-99.99,,,-99.99,,2013-03-03 21:22:00,
2013-03-03 16:32:00,-999.0,-99.9,-100.00,SW,230,20.0,-999.0,-999,-99.99,,,-99.99,,2013-03-03 21:32:00,
2013-03-03 16:42:00,-999.0,-99.9,-100.00,WSW,241,18.0,-999.0,-999,-99.99,,,-99.99,,2013-03-03 21:42:00,
2013-03-03 16:52:00,-999.0,-99.9,-100.00,SW,219,21.0,-999.0,-999,-99.99,,,-99.99,,2013-03-03 21:52:00,
2013-03-03 17:02:00,-999.0,-99.9,-100.00,SW,219,25.0,-999.0,-999,-99.99,,,-99.99,,2013-03-03 22:02:00,
2013-03-03 17:11:00,-999.0,-99.9,-100.00,SW,236,21.0,-999.0,-999,-99.99,,,-99.99,,2013-03-03 22:11:00,
2013-03-03 17:22:00,-999.0,-99.9,-100.00,SW,236,20.0,-999.0,-999,-99.99,,,-99.99,,2013-03-03 22:22:00,
2013-03-03 17:32:00,-999.0,-99.9,-100.00,SW,225,19.0,-999.0,-999,-99.99,,,-99.99,,2013-03-03 22:32:00,
2013-03-03 17:42:00,-999.0,-99.9,-100.00,SSW,213,20.0,-999.0,-999,-99.99,,,-99.99,,2013-03-03 22:42:00,
2013-03-03 17:53:00,-999.0,-99.9,-100.00,SW,236,20.0,-999.0,-999,-99.99,,,-99.99,,2013-03-03 22:53:00,
2013-03-03 18:02:00,-999.0,-99.9,-100.00,SW,236,19.0,-999.0,-999,-99.99,,,-99.99,,2013-03-03 23:02:00,
2013-03-03 18:11:00,-999.0,-99.9,-100.00,SW,236,19.0,-999.0,-999,-99.99,,,-99.99,,2013-03-03 23:11:00,
2013-03-03 18:22:00,-999.0,-99.9,-100.00,SW,236,21.0,-999.0,-999,-99.99,,,-99.99,,2013-03-03 23:22:00,
2013-03-03 18:32:00,-999.0,-99.9,-100.00,SW,219,23.0,-999.0,-999,-99.99,,,-99.99,,2013-03-03 23:32:00,
2013-03-03 18:42:00,-999.0,-99.9,-100.00,SW,230,20.0,-999.0,-999,-99.99,,,-99.99,,2013-03-03 23:42:00,
2013-03-03 18:52:00,-999.0,-99.9,-100.00,SW,230,18.0,-999.0,-999,-99.99,,,-99.99,,2013-03-03 23:52:00,
2013-03-03 19:02:00,-999.0,-99.9,-100.00,SW,236,20.0,-999.0,-999,-99.99,,,-99.99,,2013-03-04 00:02:00,
2013-03-03 19:11:00,-999.0,-99.9,-100.00,WSW,241,16.0,-999.0,-999,-99.99,,,-99.99,,2013-03-04 00:11:00,
2013-03-03 19:22:00,-999.0,-99.9,-100.00,SW,230,19.0,-999.0,-999,-99.99,,,-99.99,,2013-03-04 00:22:00,
2013-03-03 19:32:00,-999.0,-99.9,-100.00,SW,230,20.0,-999.0,-999,-99.99,,,-99.99,,2013-03-04 00:32:00,
2013-03-03 19:42:00,-999.0,-99.9,-100.00,SSW,213,17.0,-999.0,-999,-99.99,,,-99.99,,2013-03-04 00:42:00,
2013-03-03 19:52:00,-999.0,-99.9,-100.00,SSW,213,18.0,-999.0,-999,-99.99,,,-99.99,,2013-03-04 00:52:00,
2013-03-03 20:02:00,-999.0,-99.9,-100.00,SW,219,17.0,-999.0,-999,-99.99,,,-99.99,,2013-03-04 01:02:00,
2013-03-03 20:12:00,-999.0,-99.9,-100.00,SW,236,15.0,-999.0,-999,-99.99,,,-99.99,,2013-03-04 01:12:00,
2013-03-03 20:22:00,-999.0,-99.9,-100.00,SW,236,13.0,-999.0,-999,-99.99,,,-99.99,,2013-03-04 01:22:00,
2013-03-03 20:32:00,-999.0,-99.9,-100.00,SW,230,15.0,-999.0,-999,-99.99,,,-99.99,,2013-03-04 01:32:00,
2013-03-03 20:42:00,-999.0,-99.9,-100.00,SW,225,13.0,-999.0,-999,-99.99,,,-99.99,,2013-03-04 01:42:00,
2013-03-03 21:12:00,68.0,-99.9,-100.00,North,-999,-999.0,-999.0,-999,-99.99,,,-99.99,,2013-03-04 02:12:00,
2013-03-03 21:22:00,-999.0,-99.9,-100.00,SW,236,9.0,-999.0,-999,-99.99,,,-99.99,,2013-03-04 02:22:00,
2013-03-03 21:53:00,-999.0,-99.9,-100.00,SW,230,12.0,-999.0,-999,-99.99,,,-99.99,,2013-03-04 02:53:00,
2013-03-03 22:02:00,-999.0,-99.9,-100.00,WSW,241,14.0,-999.0,-999,-99.99,,,-99.99,,2013-03-04 03:02:00,
2013-03-03 22:12:00,-999.0,-99.9,-100.00,SW,225,13.0,-999.0,-999,-99.99,,,-99.99,,2013-03-04 03:12:00,
2013-03-03 22:22:00,-999.0,-99.9,-100.00,SW,225,13.0,-999.0,-999,-99.99,,,-99.99,,2013-03-04 03:22:00,
2013-03-03 22:32:00,-999.0,-99.9,-100.00,SW,225,20.0,-999.0,29,-99.99,,,-99.99,,2013-03-04 03:32:00,
2013-03-03 22:42:00,-999.0,-99.9,-100.00,SW,225,20.0,-999.0,29,-99.99,,,-99.99,,2013-03-04 03:42:00,
2013-03-03 22:53:00,65.0,-99.9,-100.00,North,-999,-999.0,-999.0,-999,-99.99,,,-99.99,,2013-03-04 03:53:00,
2013-03-03 23:02:00,-999.0,-99.9,-100.00,SW,230,18.0,-999.0,-999,-99.99,,,-99.99,,2013-03-04 04:02:00,
2013-03-03 23:11:00,-999.0,-99.9,-100.00,SW,225,16.0,-999.0,-999,-99.99,,,-99.99,,2013-03-04 04:11:00,
2013-03-03 23:22:00,-999.0,-99.9,-100.00,SW,225,17.0,-999.0,-999,-99.99,,,-99.99,,2013-03-04 04:22:00,
2013-03-03 23:42:00,-999.0,-99.9,-100.00,SW,219,18.0,-999.0,-999,-99.99,,,-99.99,,2013-03-04 04:42:00,
2013-03-03 23:52:00,-999.0,-99.9,-100.00,WSW,241,14.0,-999.0,33,-99.99,,,-99.99,,2013-03-04 04:52:00,